SQ7RAF-15 Weather Reports


time (UTC)temp
C
wind
direction
speed
KPH
gust
KPH
rain 1hr
cm
rain 24hr
cm
rain mn
cm
humidity
%
barometer
mb
20260504033521 11 217 1.6 4.8 0.00 0.00 0.00 61 1013.5
20260504033033 11 275 1.6 3.2 0.00 0.00 0.00 61 1013.5
20260504032545 11 283 1.6 4.8 0.00 0.00 0.00 60 1013.5
20260504032026 11 237 1.6 4.8 0.00 0.00 0.00 61 1013.5
20260504031537 11 246 1.6 8.0 0.00 0.00 0.00 60 1013.5
20260504031018 11 342 3.2 8.0 0.00 0.00 0.00 61 1013.5
20260504030601 11 250 1.6 8.0 0.00 0.00 0.00 60 1013.5
20260504030025 11 204 1.6 4.8 0.00 0.00 0.00 60 1013.6
20260504025537 11 287 1.6 3.2 0.00 0.00 0.00 60 1013.6
20260504025038 11 233 1.6 9.7 0.00 0.00 0.00 60 1013.6
20260504024546 11 293 1.6 3.2 0.00 0.00 0.00 60 1013.5
20260504024026 11 222 1.6 4.8 0.00 0.00 0.00 60 1013.5
20260504023537 11 258 1.6 4.8 0.00 0.00 0.00 60 1013.5
20260504023017 11 233 1.6 4.8 0.00 0.00 0.00 60 1013.5
20260504022530 12 317 1.6 3.2 0.00 0.00 0.00 59 1013.5
20260504022041 12 270 1.6 4.8 0.00 0.00 0.00 58 1013.4
20260504021522 12 286 1.6 4.8 0.00 0.00 0.00 58 1013.5
20260504021033 12 180 3.2 9.7 0.00 0.00 0.00 58 1013.6
20260504020545 12 320 1.6 3.2 0.00 0.00 0.00 58 1013.5
20260504020025 12 218 3.2 8.0 0.00 0.00 0.00 58 1013.4
20260504015537 12 137 1.6 4.8 0.00 0.00 0.00 58 1013.5
20260504015049 12 241 3.2 8.0 0.00 0.00 0.00 58 1013.5
20260504014529 12 298 1.6 4.8 0.00 0.00 0.00 58 1013.4
20260504014041 12 193 3.2 9.7 0.00 0.00 0.00 57 1013.6
20260504013521 12 166 3.2 9.7 0.00 0.00 0.00 58 1013.5
20260504013033 12 192 3.2 8.0 0.00 0.00 0.00 58 1013.7
20260504012545 12 240 1.6 4.8 0.00 0.00 0.00 59 1013.6
20260504012025 12 248 1.6 4.8 0.00 0.00 0.00 59 1013.6
20260504011537 12 326 1.6 4.8 0.00 0.00 0.00 58 1013.6
20260504011017 12 295 1.6 4.8 0.00 0.00 0.00 59 1013.6
20260504010529 12 273 1.6 8.0 0.00 0.00 0.00 59 1013.6
20260504010041 12 360 1.6 3.2 0.00 0.00 0.00 59 1013.6
20260504005521 12 316 1.6 3.2 0.00 0.00 0.00 60 1013.8
20260504005033 12 351 1.6 3.2 0.00 0.00 0.00 61 1013.6
20260504004545 12 3 1.6 4.8 0.00 0.00 0.00 62 1013.6
20260504004025 12 348 1.6 1.6 0.00 0.00 0.00 61 1013.6
20260504003537 12 359 1.6 3.2 0.00 0.00 0.00 62 1013.8
20260504003049 12 344 0.0 1.6 0.00 0.00 0.00 62 1013.8
20260504002529 12 333 1.6 1.6 0.00 0.00 0.00 61 1013.8
20260504002041 12 350 0.0 1.6 0.00 0.00 0.00 61 1013.9
20260504001521 12 315 1.6 3.2 0.00 0.00 0.00 60 1013.8
20260504001033 12 292 0.0 3.2 0.00 0.00 0.00 60 1013.9
20260504000546 12 339 1.6 3.2 0.00 0.00 0.00 60 1013.9
20260504000026 12 348 1.6 4.8 0.00 0.00 0.00 60 1013.9
20260503235537 12 9 1.6 4.8 0.00 0.00 0.00 61 1014.0
20260503235049 12 310 1.6 3.2 0.00 0.00 0.00 62 1014.0
20260503234529 12 339 0.0 3.2 0.00 0.00 0.00 62 1014.0
20260503234041 12 345 0.0 1.6 0.00 0.00 0.00 62 1014.0
20260503233521 12 323 1.6 1.6 0.00 0.00 0.00 62 1014.0
20260503233033 12 316 1.6 3.2 0.00 0.00 0.00 63 1014.0
20260503232545 12 338 0.0 1.6 0.00 0.00 0.00 63 1014.0
20260503232025 12 357 0.0 1.6 0.00 0.00 0.00 63 1014.2
20260503231537 13 343 0.0 1.6 0.00 0.00 0.00 61 1014.2
20260503231049 13 326 0.0 1.6 0.00 0.00 0.00 60 1014.2
20260503230529 13 311 0.0 1.6 0.00 0.00 0.00 60 1014.2
20260503230041 13 3 0.0 1.6 0.00 0.00 0.00 59 1014.2
20260503225521 13 338 0.0 1.6 0.00 0.00 0.00 59 1014.1
20260503225033 14 319 1.6 4.8 0.00 0.00 0.00 58 1014.2
20260503224545 14 9 0.0 3.2 0.00 0.00 0.00 58 1014.1
20260503224025 14 341 1.6 3.2 0.00 0.00 0.00 58 1014.1
20260503223537 14 345 0.0 1.6 0.00 0.00 0.00 58 1014.1
20260503223017 14 342 0.0 1.6 0.00 0.00 0.00 58 1014.1
20260503222529 14 356 0.0 1.6 0.00 0.00 0.00 58 1014.2
20260503222041 15 340 0.0 1.6 0.00 0.00 0.00 58 1014.2
20260503221521 15 353 0.0 1.6 0.00 0.00 0.00 57 1014.2
20260503221033 15 316 0.0 1.6 0.00 0.00 0.00 57 1014.2
20260503220545 15 308 1.6 3.2 0.00 0.00 0.00 57 1014.2
20260503220025 15 240 0.0 3.2 0.00 0.00 0.00 56 1014.2
20260503215537 15 326 1.6 1.6 0.00 0.00 0.00 56 1014.4
20260503215017 15 290 1.6 3.2 0.00 0.00 0.00 56 1014.3
20260503214529 15 333 0.0 3.2 0.00 0.00 0.00 55 1014.3
20260503214041 15 284 1.6 4.8 0.00 0.00 0.00 55 1014.3
20260503213521 15 272 1.6 4.8 0.00 0.00 0.00 55 1014.3
20260503213033 15 320 1.6 3.2 0.00 0.00 0.00 56 1014.2
20260503212545 15 220 1.6 9.7 0.00 0.00 0.00 56 1014.2
20260503212025 15 348 0.0 1.6 0.00 0.00 0.00 56 1014.1
20260503211537 15 346 0.0 1.6 0.00 0.00 0.00 56 1014.2
20260503211017 15 339 0.0 1.6 0.00 0.00 0.00 57 1014.2
20260503210529 15 332 0.0 1.6 0.00 0.00 0.00 58 1014.2
20260503210041 15 0.0 0.0 0.00 0.00 0.00 58 1014.2
20260503205521 15 326 0.0 1.6 0.00 0.00 0.00 57 1014.2
20260503205033 15 261 0.0 3.2 0.00 0.00 0.00 58 1014.2
20260503204546 14 0.0 0.0 0.00 0.00 0.00 58 1014.2
20260503204025 15 318 0.0 1.6 0.00 0.00 0.00 59 1014.2
20260503203538 15 317 0.0 1.6 0.00 0.00 0.00 57 1014.3
20260503203017 15 317 0.0 1.6 0.00 0.00 0.00 56 1014.2
20260503202545 15 340 0.0 1.6 0.00 0.00 0.00 56 1014.1
20260503202026 15 312 0.0 1.6 0.00 0.00 0.00 56 1014.2
20260503201537 16 311 0.0 1.6 0.00 0.00 0.00 54 1014.2
20260503201049 16 326 0.0 1.6 0.00 0.00 0.00 53 1014.2
20260503200529 16 347 0.0 1.6 0.00 0.00 0.00 52 1014.2
20260503200026 17 333 0.0 1.6 0.00 0.00 0.00 51 1014.2
20260503195521 17 332 0.0 1.6 0.00 0.00 0.00 50 1014.2
20260503195033 17 351 0.0 1.6 0.00 0.00 0.00 49 1014.3
20260503194529 17 292 1.6 1.6 0.00 0.00 0.00 48 1014.3
20260503194041 18 339 0.0 3.2 0.00 0.00 0.00 48 1014.3
20260503193521 18 334 0.0 1.6 0.00 0.00 0.00 47 1014.3
20260503193017 18 1 1.6 8.0 0.00 0.00 0.00 47 1014.3
20260503192529 18 358 0.0 1.6 0.00 0.00 0.00 46 1014.3
20260503192041 18 311 1.6 3.2 0.00 0.00 0.00 46 1014.4
20260503191521 18 303 1.6 3.2 0.00 0.00 0.00 46 1014.3
20260503191033 18 339 0.0 1.6 0.00 0.00 0.00 46 1014.2
20260503190545 18 298 1.6 3.2 0.00 0.00 0.00 45 1014.2
20260503190025 18 352 0.0 1.6 0.00 0.00 0.00 45 1014.1
20260503185537 19 334 0.0 3.2 0.00 0.00 0.00 45 1014.2
20260503185017 19 35 0.0 1.6 0.00 0.00 0.00 44 1014.1
20260503184529 19 112 1.6 9.7 0.00 0.00 0.00 44 1014.1
20260503183521 19 278 1.6 4.8 0.00 0.00 0.00 44 1014.0
20260503183034 20 315 1.6 3.2 0.00 0.00 0.00 44 1014.0
20260503182545 20 10 1.6 8.0 0.00 0.00 0.00 44 1013.9
20260503182026 20 313 1.6 1.6 0.00 0.00 0.00 44 1013.9
20260503181537 20 334 0.0 1.6 0.00 0.00 0.00 44 1013.8
20260503181018 20 328 0.0 1.6 0.00 0.00 0.00 43 1013.8
20260503180545 21 250 0.0 4.8 0.00 0.00 0.00 42 1013.8
20260503180025 21 273 1.6 4.8 0.00 0.00 0.00 41 1013.8
20260503175537 21 295 1.6 4.8 0.00 0.00 0.00 40 1013.8
20260503175017 21 301 1.6 3.2 0.00 0.00 0.00 40 1013.8
20260503174529 21 313 1.6 3.2 0.00 0.00 0.00 39 1013.8
20260503174041 22 229 1.6 4.8 0.00 0.00 0.00 39 1013.8
20260503173521 22 256 3.2 9.7 0.00 0.00 0.00 38 1013.7
20260503173033 22 211 3.2 8.0 0.00 0.00 0.00 38 1013.6
20260503172545 22 201 3.2 11.3 0.00 0.00 0.00 37 1013.7
20260503172026 22 216 3.2 11.3 0.00 0.00 0.00 37 1013.7
20260503171537 23 136 1.6 9.7 0.00 0.00 0.00 36 1013.7
20260503171018 23 202 4.8 11.3 0.00 0.00 0.00 35 1013.6
20260503170529 23 185 4.8 11.3 0.00 0.00 0.00 35 1013.6
20260503150545 25 163 4.8 16.1 0.00 0.00 0.00 32 1014.0
20260503131033 27 204 4.8 14.5 0.00 0.00 0.00 27 1015.5
20260503130545 26 202 4.8 11.3 0.00 0.00 0.00 27 1015.4
20260503110545 25 201 4.8 9.7 0.00 0.00 0.00 29 1016.6
20260503081537 21 261 3.2 9.7 0.00 0.00 0.00 43 1018.0
20260503081017 21 172 6.4 12.9 0.00 0.00 0.00 44 1018.2
20260503080529 21 175 3.2 8.0 0.00 0.00 0.00 45 1018.1
20260503072529 19 196 4.8 11.3 0.00 0.00 0.00 49 1018.2
20260503072041 19 184 6.4 14.5 0.00 0.00 0.00 49 1018.3
20260503071521 18 257 3.2 9.7 0.00 0.00 0.00 49 1018.3
20260503071033 18 211 4.8 12.9 0.00 0.00 0.00 50 1018.3
20260503070545 18 172 6.4 12.9 0.00 0.00 0.00 49 1018.3
20260503055033 15 194 4.8 12.9 0.00 0.00 0.00 55 1018.2
20260503054546 15 194 3.2 8.0 0.00 0.00 0.00 56 1018.1
20260503054025 15 144 3.2 9.7 0.00 0.00 0.00 57 1018.2
20260503053539 15 101 3.2 9.7 0.00 0.00 0.00 59 1018.2
20260503053017 14 105 3.2 8.0 0.00 0.00 0.00 60 1018.3
20260503052530 13 79 3.2 8.0 0.00 0.00 0.00 61 1018.3
20260503052041 13 113 3.2 9.7 0.00 0.00 0.00 62 1018.3
20260503051523 13 111 3.2 4.8 0.00 0.00 0.00 63 1018.3
20260503051033 12 142 3.2 4.8 0.00 0.00 0.00 64 1018.3
20260503050545 12 93 3.2 9.7 0.00 0.00 0.00 65 1018.4
20260503050041 12 120 4.8 9.7 0.00 0.00 0.00 66 1018.4
20260503045521 12 126 3.2 4.8 0.00 0.00 0.00 66 1018.4
20260503045033 12 49 1.6 4.8 0.00 0.00 0.00 67 1018.4
20260503044545 11 65 3.2 4.8 0.00 0.00 0.00 69 1018.5
20260503044025 10 35 1.6 3.2 0.00 0.00 0.00 73 1018.5
20260503043537 9 343 1.6 3.2 0.00 0.00 0.00 77 1018.5
20260503043017 8 336 1.6 3.2 0.00 0.00 0.00 79 1018.5
20260503042531 7 79 1.6 3.2 0.00 0.00 0.00 82 1018.6
20260503042041 7 340 0.0 1.6 0.00 0.00 0.00 84 1018.6
20260503041522 6 344 0.0 1.6 0.00 0.00 0.00 87 1018.6
20260503041033 6 331 0.0 1.6 0.00 0.00 0.00 88 1018.6
20260503040546 5 329 0.0 1.6 0.00 0.00 0.00 89 1018.6
20260503040026 5 336 0.0 1.6 0.00 0.00 0.00 89 1018.6
20260503035537 5 340 0.0 1.6 0.00 0.00 0.00 89 1018.7
20260503035017 5 334 0.0 1.6 0.00 0.00 0.00 89 1018.6
20260503034529 5 0.0 0.0 0.00 0.00 0.00 89 1018.6
20260503034033 5 346 0.0 1.6 0.00 0.00 0.00 89 1018.6